When you browse on this site, cookies collect data to enhance your experience and personalize the content and advertising you see.
Visit our Privacy Policy to learn more. By continuing to use the site, you agree to this use of cookies and data.
  • In Hungary
  • List of Countries
  • For 7 days
  • Water Temperature
  • Weather Map
  • News
  • Weather Widgets
  • user-avatar
    Login

    Hourly Weather Taldy-Kuduk

    Today, 5 June, Friday

    Time Temperature Precipitation Wind Pressure Humidity
    00:00 +15°C° 0 mm 6 mps 746 mmHg 54%
    01:00 +14°C° 0 mm 6 mps 746 mmHg 56%
    02:00 +13°C° 0 mm 6 mps 747 mmHg 56%
    03:00 +13°C° 0 mm 6 mps 747 mmHg 57%
    04:00 +11°C° 0 mm 6 mps 747 mmHg 55%
    05:00 +13°C° 0 mm 6 mps 748 mmHg 53%
    06:00 +13°C° 0 mm 6 mps 748 mmHg 51%
    07:00 +14°C° 0 mm 6 mps 748 mmHg 48%
    08:00 +15°C° 0 mm 6 mps 748 mmHg 45%
    09:00 +16°C° 0 mm 6 mps 748 mmHg 41%
    10:00 +19°C° 0 mm 6 mps 749 mmHg 37%
    11:00 +20°C° 0 mm 6 mps 749 mmHg 33%
    12:00 +21°C° 0 mm 6 mps 748 mmHg 30%
    13:00 +22°C° 0 mm 6 mps 748 mmHg 26%
    14:00 +22°C° 0 mm 6 mps 748 mmHg 26%
    15:00 +22°C° 0 mm 6 mps 748 mmHg 27%
    16:00 +22°C° 0 mm 6 mps 748 mmHg 27%
    17:00 +22°C° 0 mm 5 mps 748 mmHg 30%
    18:00 +21°C° 0 mm 4 mps 748 mmHg 34%
    19:00 +20°C° 0 mm 4 mps 748 mmHg 38%
    20:00 +19°C° 0 mm 4 mps 748 mmHg 39%
    21:00 +18°C° 0 mm 4 mps 748 mmHg 40%
    22:00 +17°C° 0 mm 4 mps 749 mmHg 41%
    23:00 +15°C° 0 mm 4 mps 749 mmHg 41%

    Tomorrow, 6 June, Saturday

    Time Temperature Precipitation Wind Pressure Humidity
    00:00 +14°C° 0 mm 4 mps 749 mmHg 42%
    01:00 +14°C° 0 mm 4 mps 748 mmHg 43%
    02:00 +13°C° 0 mm 4 mps 749 mmHg 44%
    03:00 +13°C° 0 mm 4 mps 749 mmHg 46%
    04:00 +12°C° 0 mm 4 mps 749 mmHg 48%
    05:00 +14°C° 0 mm 5 mps 749 mmHg 46%
    06:00 +15°C° 0 mm 5 mps 749 mmHg 43%
    07:00 +16°C° 0 mm 6 mps 749 mmHg 41%
    08:00 +19°C° 0 mm 6 mps 749 mmHg 38%
    09:00 +20°C° 0 mm 6 mps 749 mmHg 35%
    10:00 +22°C° 0 mm 6 mps 749 mmHg 32%
    11:00 +23°C° 0 mm 6 mps 749 mmHg 29%
    12:00 +24°C° 0 mm 6 mps 749 mmHg 27%
    13:00 +26°C° 0 mm 5 mps 749 mmHg 25%
    14:00 +26°C° 0 mm 5 mps 749 mmHg 24%
    15:00 +26°C° 0 mm 5 mps 748 mmHg 24%
    16:00 +26°C° 0 mm 5 mps 748 mmHg 24%
    17:00 +25°C° 0 mm 4 mps 748 mmHg 28%
    18:00 +23°C° 0 mm 4 mps 748 mmHg 32%
    19:00 +22°C° 0 mm 3 mps 748 mmHg 36%
    20:00 +20°C° 0 mm 3 mps 748 mmHg 41%
    21:00 +19°C° 0 mm 3 mps 748 mmHg 46%
    22:00 +17°C° 0 mm 3 mps 749 mmHg 51%
    23:00 +17°C° 0 mm 2 mps 748 mmHg 56%

    Day after tomorrow, 7 June, Sunday

    Time Temperature Precipitation Wind Pressure Humidity
    00:00 +16°C° 0 mm 2 mps 748 mmHg 60%
    01:00 +16°C° 0 mm 2 mps 748 mmHg 64%
    02:00 +15°C° 0 mm 2 mps 748 mmHg 63%
    03:00 +15°C° 0 mm 2 mps 748 mmHg 61%
    04:00 +15°C° 0 mm 2 mps 748 mmHg 60%
    05:00 +16°C° 0 mm 3 mps 748 mmHg 55%
    06:00 +17°C° 0 mm 3 mps 749 mmHg 50%
    07:00 +19°C° 0 mm 4 mps 749 mmHg 46%
    08:00 +20°C° 0 mm 4 mps 749 mmHg 40%
    09:00 +22°C° 0 mm 4 mps 749 mmHg 34%
    10:00 +25°C° 0 mm 4 mps 749 mmHg 29%
    11:00 +25°C° 0 mm 4 mps 749 mmHg 27%
    12:00 +26°C° 0 mm 4 mps 749 mmHg 25%
    13:00 +27°C° 0 mm 4 mps 749 mmHg 24%
    14:00 +27°C° 0 mm 4 mps 748 mmHg 23%
    15:00 +27°C° 0 mm 4 mps 748 mmHg 23%
    16:00 +28°C° 0 mm 4 mps 748 mmHg 23%
    17:00 +27°C° 0 mm 4 mps 748 mmHg 27%
    18:00 +25°C° 0 mm 4 mps 748 mmHg 32%
    19:00 +23°C° 0 mm 4 mps 748 mmHg 36%
    20:00 +22°C° 0 mm 4 mps 748 mmHg 39%
    21:00 +20°C° 0 mm 4 mps 748 mmHg 42%
    22:00 +19°C° 0 mm 4 mps 748 mmHg 45%
    23:00 +19°C° 0 mm 4 mps 748 mmHg 45%

    8 June, Monday

    Time Temperature Precipitation Wind Pressure Humidity
    00:00 +18°C° 0 mm 4 mps 748 mmHg 46%
    01:00 +17°C° 0 mm 3 mps 748 mmHg 47%
    02:00 +17°C° 0 mm 4 mps 748 mmHg 47%
    03:00 +17°C° 0 mm 4 mps 748 mmHg 48%
    04:00 +15°C° 0 mm 4 mps 748 mmHg 49%
    05:00 +18°C° 0 mm 4 mps 748 mmHg 48%
    06:00 +19°C° 0 mm 5 mps 749 mmHg 47%
    07:00 +21°C° 0 mm 5 mps 749 mmHg 46%
    08:00 +23°C° 0 mm 5 mps 749 mmHg 40%
    09:00 +24°C° 0 mm 6 mps 749 mmHg 35%
    10:00 +27°C° 0 mm 6 mps 749 mmHg 29%
    11:00 +27°C° 0 mm 6 mps 749 mmHg 29%
    12:00 +28°C° 0 mm 6 mps 749 mmHg 30%
    13:00 +28°C° 0 mm 5 mps 749 mmHg 30%
    14:00 +28°C° 0 mm 6 mps 749 mmHg 30%
    15:00 +27°C° 0 mm 6 mps 749 mmHg 31%
    16:00 +27°C° 0 mm 6 mps 749 mmHg 32%
    17:00 +27°C° 0 mm 5 mps 749 mmHg 34%
    18:00 +26°C° 0 mm 4 mps 749 mmHg 37%
    19:00 +25°C° 0 mm 3 mps 749 mmHg 39%
    20:00 +24°C° 0 mm 2 mps 749 mmHg 41%
    21:00 +21°C° 0 mm 2 mps 750 mmHg 43%
    22:00 +20°C° 0 mm 2 mps 750 mmHg 45%
    23:00 +19°C° 0 mm 2 mps 750 mmHg 47%

    9 June, Tuesday

    Time Temperature Precipitation Wind Pressure Humidity
    00:00 +20°C° 0 mm 1 mps 750 mmHg 48%
    01:00 +20°C° 0 mm 1 mps 750 mmHg 50%
    02:00 +19°C° 0 mm 1 mps 750 mmHg 50%
    03:00 +18°C° 0 mm 2 mps 750 mmHg 50%
    04:00 +18°C° 0 mm 3 mps 750 mmHg 51%
    05:00 +19°C° 0 mm 3 mps 750 mmHg 48%
    06:00 +21°C° 0 mm 3 mps 751 mmHg 46%
    07:00 +24°C° 0 mm 3 mps 751 mmHg 44%
    08:00 +25°C° 0 mm 4 mps 751 mmHg 40%
    09:00 +27°C° 0 mm 4 mps 751 mmHg 35%
    10:00 +28°C° 0 mm 4 mps 751 mmHg 31%
    11:00 +29°C° 0 mm 4 mps 751 mmHg 29%
    12:00 +30°C° 0 mm 4 mps 751 mmHg 27%
    13:00 +30°C° 0 mm 4 mps 751 mmHg 25%
    14:00 +30°C° 0 mm 4 mps 751 mmHg 24%
    15:00 +32°C° 0 mm 4 mps 750 mmHg 23%
    16:00 +32°C° 0 mm 4 mps 750 mmHg 22%
    17:00 +30°C° 0 mm 3 mps 750 mmHg 26%
    18:00 +29°C° 0 mm 3 mps 750 mmHg 30%
    19:00 +28°C° 0 mm 3 mps 750 mmHg 35%
    20:00 +26°C° 0 mm 3 mps 750 mmHg 38%
    21:00 +24°C° 0 mm 3 mps 750 mmHg 42%
    22:00 +21°C° 0 mm 3 mps 750 mmHg 45%
    23:00 +21°C° 0 mm 2 mps 750 mmHg 47%

    10 June, Wednesday

    Time Temperature Precipitation Wind Pressure Humidity
    00:00 +21°C° 0 mm 2 mps 750 mmHg 48%
    01:00 +22°C° 0 mm 1 mps 750 mmHg 49%
    02:00 +21°C° 0 mm 1 mps 750 mmHg 51%
    03:00 +21°C° 0 mm 1 mps 750 mmHg 52%
    04:00 +20°C° 0 mm 1 mps 750 mmHg 53%
    05:00 +20°C° 0 mm 2 mps 750 mmHg 53%
    06:00 +21°C° 0 mm 2 mps 750 mmHg 53%
    07:00 +23°C° 0 mm 2 mps 751 mmHg 53%
    08:00 +25°C° 0 mm 2 mps 751 mmHg 46%
    09:00 +27°C° 0 mm 3 mps 750 mmHg 40%
    10:00 +29°C° 0 mm 3 mps 750 mmHg 34%
    11:00 +29°C° 0 mm 3 mps 750 mmHg 34%
    12:00 +29°C° 0 mm 3 mps 750 mmHg 33%
    13:00 +29°C° 0 mm 4 mps 750 mmHg 33%
    14:00 +29°C° 0 mm 3 mps 750 mmHg 34%
    15:00 +29°C° 0 mm 3 mps 750 mmHg 34%
    16:00 +29°C° 0 mm 3 mps 750 mmHg 35%
    17:00 +28°C° 0 mm 3 mps 749 mmHg 39%
    18:00 +27°C° 0 mm 2 mps 749 mmHg 42%
    19:00 +26°C° 0 mm 2 mps 749 mmHg 45%
    20:00 +25°C° 0 mm 2 mps 749 mmHg 46%
    21:00 +24°C° 0 mm 1 mps 749 mmHg 47%
    22:00 +23°C° 0 mm 1 mps 749 mmHg 48%
    23:00 +23°C° 0 mm 1 mps 749 mmHg 47%
    Show more